PAL737 RPVE-RPLL

Flight info

Callsign PAL737
Flight time N/A
Altitude 26000
Route MINOR8A MINOR B473 LAIYA LAIYA7R
Aircraft B738/M-SABDFGRVYL/LB2

Departure

Time 2026-04-21 15:08
Airport Godofredo P. Ramos Airport (RPVE)

Arrival

Time N/A
Airport Ninoy Aquino International Airport (RPLL)
Time Latitude Longitude Altitude Speed Heading
2026-04-21 14:56 11.92623 121.96310 13 ft 0 kts 152°
2026-04-21 15:03 11.92622 121.96311 13 ft 0 kts 120°
2026-04-21 15:03 11.92623 121.96313 13 ft 0 kts 88°
2026-04-21 15:03 11.92624 121.96315 13 ft 0 kts 53°
2026-04-21 15:04 11.92626 121.96315 13 ft 0 kts 12°
2026-04-21 15:04 11.92644 121.96310 13 ft 3 kts 333°
2026-04-21 15:04 11.92654 121.96292 13 ft 3 kts 265°
2026-04-21 15:04 11.92642 121.96258 13 ft 5 kts 246°
2026-04-21 15:05 11.92632 121.96226 13 ft 3 kts 278°
2026-04-21 15:05 11.92724 121.96162 13 ft 13 kts 333°
2026-04-21 15:05 11.92795 121.96112 13 ft 11 kts 289°
2026-04-21 15:06 11.92760 121.96010 13 ft 22 kts 243°
2026-04-21 15:06 11.92666 121.95825 13 ft 36 kts 243°
2026-04-21 15:06 11.92541 121.95572 13 ft 42 kts 243°
2026-04-21 15:06 11.92406 121.95302 13 ft 40 kts 243°
2026-04-21 15:07 11.92294 121.95087 13 ft 23 kts 227°
2026-04-21 15:07 11.92233 121.95019 13 ft 9 kts 273°
2026-04-21 15:07 11.92237 121.95010 13 ft 1 kts 322°
2026-04-21 15:07 11.92267 121.95027 13 ft 7 kts 54°
2026-04-21 15:08 11.92297 121.95085 13 ft 23 kts 63°
2026-04-21 15:08 11.92494 121.95483 13 ft 106 kts 63°
2026-04-21 15:08 11.92927 121.96351 34 ft 172 kts 63°
2026-04-21 15:08 11.93471 121.97432 960 ft 168 kts 63°
2026-04-21 15:09 11.93987 121.98446 1791 ft 170 kts 63°
2026-04-21 15:09 11.94530 121.99557 2417 ft 176 kts 64°
2026-04-21 15:09 11.95095 122.00678 2858 ft 194 kts 62°
2026-04-21 15:09 11.95451 122.01360 3172 ft 200 kts 62°
2026-04-21 15:10 11.95858 122.02132 3479 ft 211 kts 60°
2026-04-21 15:10 11.96830 122.03310 4007 ft 228 kts 36°
2026-04-21 15:10 11.98264 122.04085 4588 ft 242 kts 23°
2026-04-21 15:10 11.99838 122.04769 5304 ft 252 kts 24°
2026-04-21 15:11 12.01437 122.05513 6190 ft 257 kts 25°
2026-04-21 15:11 12.03080 122.06324 6832 ft 273 kts 26°
2026-04-21 15:11 12.04795 122.07193 7698 ft 279 kts 26°
2026-04-21 15:11 12.06483 122.08053 8226 ft 271 kts 26°
2026-04-21 15:12 12.08246 122.08949 8808 ft 287 kts 26°
2026-04-21 15:12 12.09995 122.09836 9745 ft 288 kts 26°
2026-04-21 15:12 12.11749 122.10724 10542 ft 293 kts 26°
2026-04-21 15:12 12.13551 122.11635 11023 ft 310 kts 26°
2026-04-21 15:13 12.15424 122.12582 11500 ft 325 kts 26°
2026-04-21 15:13 12.17326 122.13545 11935 ft 340 kts 26°
2026-04-21 15:13 12.19274 122.14529 12484 ft 350 kts 26°
2026-04-21 15:13 12.21376 122.15592 13269 ft 354 kts 26°
2026-04-21 15:14 12.23497 122.16666 14097 ft 356 kts 26°
2026-04-21 15:14 12.25686 122.17774 15043 ft 355 kts 26°
2026-04-21 15:14 12.27917 122.18905 15887 ft 357 kts 26°
2026-04-21 15:14 12.30137 122.20029 16701 ft 358 kts 26°
2026-04-21 15:15 12.32389 122.21146 17473 ft 360 kts 24°
2026-04-21 15:15 12.34757 122.21986 18245 ft 362 kts 12°
2026-04-21 15:15 12.37270 122.22079 18946 ft 364 kts 351°
2026-04-21 15:15 12.39606 122.21387 19744 ft 362 kts 336°
2026-04-21 15:16 12.41797 122.20234 20105 ft 374 kts 329°
2026-04-21 15:16 12.44022 122.18769 20415 ft 387 kts 326°
2026-04-21 15:16 12.46182 122.17234 20802 ft 396 kts 324°
2026-04-21 15:16 12.48427 122.15609 21421 ft 400 kts 324°
2026-04-21 15:17 12.50678 122.13984 22054 ft 402 kts 324°
2026-04-21 15:17 12.52996 122.12326 22648 ft 405 kts 325°
2026-04-21 15:17 12.55267 122.10718 23201 ft 409 kts 325°
2026-04-21 15:17 12.57432 122.09194 23810 ft 409 kts 325°
2026-04-21 15:18 12.59563 122.07702 24548 ft 405 kts 325°
2026-04-21 15:18 12.61841 122.06112 25223 ft 404 kts 326°
2026-04-21 15:18 12.64106 122.04533 25811 ft 404 kts 326°
2026-04-21 15:18 12.66422 122.02920 25980 ft 409 kts 326°
2026-04-21 15:19 12.68703 122.01333 25996 ft 407 kts 326°
2026-04-21 15:19 12.71019 121.99720 26000 ft 403 kts 326°
2026-04-21 15:19 12.73255 121.98164 26002 ft 402 kts 326°
2026-04-21 15:19 12.75533 121.96577 26002 ft 402 kts 326°
2026-04-21 15:20 12.77759 121.95027 26002 ft 402 kts 326°
2026-04-21 15:20 12.80034 121.93443 26001 ft 402 kts 326°
2026-04-21 15:20 12.82290 121.91871 26001 ft 402 kts 326°
2026-04-21 15:20 12.84520 121.90316 26001 ft 402 kts 326°
2026-04-21 15:21 12.86713 121.88788 26001 ft 402 kts 326°
2026-04-21 15:21 12.88792 121.87339 26001 ft 402 kts 326°
2026-04-21 15:21 12.90918 121.85855 26001 ft 402 kts 326°
2026-04-21 15:21 12.93181 121.84277 26001 ft 402 kts 326°
2026-04-21 15:22 12.95345 121.82767 26001 ft 402 kts 326°
2026-04-21 15:22 12.97639 121.81167 26001 ft 402 kts 326°
2026-04-21 15:22 12.99898 121.79590 25998 ft 392 kts 326°
2026-04-21 15:22 13.02130 121.78031 26004 ft 395 kts 326°
2026-04-21 15:23 13.04352 121.76479 25998 ft 388 kts 326°
2026-04-21 15:23 13.06488 121.74987 26004 ft 391 kts 326°
2026-04-21 15:23 13.08683 121.73453 26006 ft 401 kts 326°
2026-04-21 15:23 13.10902 121.71903 25997 ft 397 kts 326°
2026-04-21 15:24 13.13198 121.70298 25995 ft 385 kts 326°
2026-04-21 15:24 13.15247 121.68866 26003 ft 386 kts 326°
2026-04-21 15:24 13.17400 121.67360 26008 ft 398 kts 326°
2026-04-21 15:24 13.19683 121.65763 26002 ft 404 kts 326°
2026-04-21 15:25 13.21973 121.64162 25999 ft 404 kts 326°
2026-04-21 15:25 13.24070 121.62695 25999 ft 403 kts 326°
2026-04-21 15:25 13.26227 121.61186 26000 ft 402 kts 326°
2026-04-21 15:25 13.28357 121.59695 26001 ft 402 kts 326°
2026-04-21 15:26 13.30422 121.58249 26001 ft 402 kts 326°
2026-04-21 15:26 13.32500 121.56794 26001 ft 402 kts 326°
2026-04-21 15:26 13.34531 121.55371 26001 ft 402 kts 326°
2026-04-21 15:26 13.36594 121.53926 26001 ft 402 kts 326°
2026-04-21 15:27 13.38741 121.52422 26001 ft 402 kts 326°
2026-04-21 15:27 13.40960 121.50866 26001 ft 402 kts 326°
2026-04-21 15:27 13.43238 121.49269 26001 ft 402 kts 326°
2026-04-21 15:27 13.45474 121.47701 26001 ft 402 kts 326°
2026-04-21 15:28 13.47751 121.46105 26001 ft 402 kts 326°
2026-04-21 15:28 13.50035 121.44503 26001 ft 402 kts 326°
2026-04-21 15:28 13.52348 121.42880 26001 ft 402 kts 326°
2026-04-21 15:28 13.54465 121.41393 26001 ft 402 kts 326°
2026-04-21 15:29 13.56599 121.39896 26001 ft 402 kts 326°
2026-04-21 15:29 13.58729 121.38403 26001 ft 402 kts 326°
2026-04-21 15:29 13.60834 121.36934 25978 ft 398 kts 326°
2026-04-21 15:29 13.62854 121.35529 25899 ft 386 kts 326°
2026-04-21 15:30 13.64870 121.34127 25703 ft 377 kts 326°
2026-04-21 15:30 13.66830 121.32764 25513 ft 368 kts 326°
2026-04-21 15:30 13.68752 121.31426 25237 ft 363 kts 326°
2026-04-21 15:30 13.70597 121.30141 24824 ft 361 kts 326°
2026-04-21 15:31 13.72462 121.28843 24356 ft 360 kts 326°
2026-04-21 15:31 13.74348 121.27528 23901 ft 353 kts 326°
2026-04-21 15:31 13.76177 121.26253 23449 ft 347 kts 326°
2026-04-21 15:31 13.78022 121.24966 22985 ft 341 kts 326°
2026-04-21 15:32 13.79828 121.23706 22523 ft 336 kts 326°
2026-04-21 15:32 13.81583 121.22481 22068 ft 333 kts 326°
2026-04-21 15:32 13.83319 121.21269 21616 ft 331 kts 326°
2026-04-21 15:32 13.85069 121.20047 21158 ft 330 kts 326°
2026-04-21 15:33 13.86762 121.18865 20711 ft 328 kts 326°
2026-04-21 15:33 13.88476 121.17668 20256 ft 326 kts 326°
2026-04-21 15:33 13.90205 121.16462 19793 ft 323 kts 326°
2026-04-21 15:33 13.91877 121.15294 19342 ft 321 kts 326°
2026-04-21 15:34 13.93566 121.14132 18885 ft 319 kts 327°
2026-04-21 15:34 13.95337 121.13076 18420 ft 316 kts 334°
2026-04-21 15:34 13.97238 121.12336 17957 ft 314 kts 345°
2026-04-21 15:34 13.99134 121.11877 17514 ft 312 kts 349°
2026-04-21 15:35 14.01103 121.11515 17052 ft 310 kts 351°
2026-04-21 15:35 14.03066 121.11186 16590 ft 308 kts 351°
2026-04-21 15:35 14.05032 121.10852 16123 ft 305 kts 350°
2026-04-21 15:35 14.06918 121.10518 15671 ft 303 kts 350°
2026-04-21 15:36 14.08827 121.10168 15211 ft 301 kts 349°
2026-04-21 15:36 14.10773 121.09802 14737 ft 299 kts 349°
2026-04-21 15:36 14.12592 121.09457 14292 ft 297 kts 349°
2026-04-21 15:36 14.14506 121.09094 13819 ft 295 kts 349°
2026-04-21 15:37 14.16298 121.08753 13374 ft 293 kts 349°
2026-04-21 15:37 14.18129 121.08321 12903 ft 291 kts 338°
2026-04-21 15:37 14.19681 121.07372 12461 ft 289 kts 319°
2026-04-21 15:37 14.20985 121.06059 12017 ft 287 kts 313°
2026-04-21 15:38 14.22213 121.04670 11556 ft 285 kts 311°
2026-04-21 15:38 14.23474 121.03210 11074 ft 283 kts 311°
2026-04-21 15:38 14.24677 121.01810 10609 ft 281 kts 311°
2026-04-21 15:38 14.25821 121.00477 10165 ft 279 kts 311°
2026-04-21 15:39 14.27046 120.99049 9687 ft 277 kts 311°
2026-04-21 15:39 14.28212 120.97689 9228 ft 275 kts 311°
2026-04-21 15:39 14.29403 120.96300 8755 ft 273 kts 311°
2026-04-21 15:39 14.30560 120.94952 8293 ft 272 kts 311°
2026-04-21 15:40 14.31719 120.93600 7828 ft 270 kts 311°
2026-04-21 15:40 14.32874 120.92252 7361 ft 268 kts 311°
2026-04-21 15:40 14.34011 120.90926 6898 ft 266 kts 311°
2026-04-21 15:40 14.35135 120.89614 6484 ft 266 kts 311°
2026-04-21 15:41 14.36261 120.88301 5998 ft 271 kts 311°
2026-04-21 15:41 14.37429 120.86938 5530 ft 274 kts 311°
2026-04-21 15:41 14.38602 120.85571 5067 ft 278 kts 311°
2026-04-21 15:41 14.39764 120.84215 4614 ft 280 kts 311°
2026-04-21 15:42 14.40907 120.82881 4185 ft 282 kts 311°
2026-04-21 15:42 14.42123 120.81462 3850 ft 278 kts 311°
2026-04-21 15:42 14.43105 120.80316 3654 ft 273 kts 311°
2026-04-21 15:42 14.44120 120.79131 3446 ft 268 kts 311°
2026-04-21 15:43 14.45315 120.77737 3200 ft 262 kts 311°
2026-04-21 15:43 14.46440 120.76423 3071 ft 253 kts 311°